Weather History for Paganella, Italy

Change the Weather History Date:

Sunday, April 28, 2013

  Actual Average Record
Temperature  
Mean Temperature 34 °F -  
Max Temperature 37 °F 43 °F 53 °F (2007)
Min Temperature 31 °F 33 °F 28 °F (1997)
Degree Days  
Heating Degree Days 31    
Moisture  
Dew Point 33 °F    
Average Humidity 97    
Maximum Humidity 100    
Minimum Humidity 84    
Precipitation  
Precipitation 0.08 in 0.09 in - ()
Sea Level Pressure  
Sea Level Pressure 29.92 in    
Wind  
Wind Speed 13 mph ()    
Max Wind Speed 20 mph    
Max Gust Speed -    
Visibility 0.5 miles    
Events Fog , Rain    
Averages and records for this station are not official NWS values.
T = Trace of Precipitation, MM = Missing Value Source: Averaged Metar Reports

Daily Weather History Graph

Daily Weather History Graph

Search for Another Location

Airport:

Trip Planner

Search our weather history database for the weather conditions in past years. The results will help you decide how hot, cold, wet, or windy it might be!

Date:

Astronomy

Apr. 28, 2013 Rise Set
Actual Time 6:07 AM CEST 8:20 PM CEST
Civil Twilight 5:34 AM CEST 8:53 PM CEST
Nautical Twilight 4:53 AM CEST 9:34 PM CEST
Astronomical Twilight 4:08 AM CEST 10:20 PM CEST
Moon 11:40 PM CEST (4/28) 8:00 AM CEST (4/28)
Length of Visible Light 15h 18m
Length of Day
14h 13m
Waning Gibbous, 91% of the Moon is Illuminated
Apr 28
Waning Gibbous
May 2
Last Quarter
May 10
New
May 18
First Quarter
May 25
Full

Hourly Weather History & Observations

Time (CEST) Temp. Windchill Dew Point Humidity Pressure Visibility Wind Dir Wind Speed Gust Speed Precip Events Conditions
12:55 AM 32.0 °F 20.8 °F 32.0 °F 100% 29.74 in 0.0 mi SSE 17.3 mph - N/A Fog , Rain Light Rain
1:55 AM 32.0 °F 21.6 °F 32.0 °F 100% 29.74 in 0.0 mi South 15.0 mph - N/A Fog , Rain Light Rain
2:00 AM 32 °F - 31 °F 96%  in 0 mi South 15.0 mph - - Rain Light Rain
2:55 AM 32.0 °F 22.1 °F 32.0 °F 100% 29.74 in 0.0 mi South 13.8 mph - N/A Fog Fog
3:55 AM 32.0 °F 21.6 °F 32.0 °F 100% 29.74 in 0.0 mi South 15.0 mph - N/A Fog Fog
4:55 AM 32.0 °F 22.1 °F 32.0 °F 100% 29.77 in 0.0 mi SSW 13.8 mph - N/A Fog , Rain Light Rain
5:00 AM 32 °F - 32 °F 98%  in 0 mi SSW 13.8 mph - - Rain Light Rain
5:55 AM 32.0 °F 23.0 °F 32.0 °F 100% 29.80 in 0.0 mi SSW 11.5 mph - N/A Fog , Rain Light Rain
6:55 AM 32.0 °F 26.4 °F 32.0 °F 100% 29.80 in 0.0 mi SSW 5.8 mph - N/A Fog Fog
7:55 AM 32.0 °F 23.6 °F 32.0 °F 100% 29.83 in 0.0 mi SSW 10.4 mph - N/A Fog Fog
8:00 AM 33 °F - 32 °F 93%  in 0 mi SSW 10.4 mph - - Fog Heavy Fog
8:55 AM 32.0 °F 20.5 °F 32.0 °F 100% 29.86 in 0.0 mi SSW 18.4 mph - N/A Fog Fog
9:55 AM 32.0 °F 21.2 °F 32.0 °F 100% 29.89 in 0.0 mi SSW 16.1 mph - N/A Fog Fog
10:55 AM 32.0 °F 21.6 °F 32.0 °F 100% 29.92 in 0.0 mi SSW 15.0 mph - N/A Fog Fog
11:00 AM 33 °F - 32 °F 94%  in 0 mi SSW 15.0 mph - - Fog Heavy Fog
11:55 AM 33.8 °F 24.3 °F 33.8 °F 100% 29.95 in 0.0 mi SSW 13.8 mph - N/A Fog Fog
12:55 PM 35.6 °F 28.0 °F 35.6 °F 100% 29.95 in 0.1 mi South 10.4 mph - N/A Fog Fog
1:55 PM 35.6 °F 27.1 °F 35.6 °F 100% 29.98 in 0.1 mi South 12.7 mph - N/A Fog Fog
2:00 PM 36 °F - 35 °F 94%  in 0 mi South 12.7 mph - - Fog Heavy Fog
2:55 PM 35.6 °F 26.6 °F 33.8 °F 93% 29.98 in 0.3 mi South 13.8 mph - N/A Fog Fog
3:55 PM 35.6 °F 25.5 °F 33.8 °F 93% 30.01 in 6.2 mi SSW 17.3 mph - N/A   Scattered Clouds
4:55 PM 37.4 °F 30.3 °F 33.8 °F 87% 30.01 in 6.2 mi SSW 10.4 mph - N/A   Scattered Clouds
5:00 PM 37 °F - 34 °F 84%  in 4 mi SSW 10.4 mph - -   Mist
5:55 PM 35.6 °F 26.6 °F 33.8 °F 93% 30.01 in 0.1 mi SSW 13.8 mph - N/A Fog Fog
6:55 PM 35.6 °F 27.1 °F 35.6 °F 100% 30.01 in 0.0 mi South 12.7 mph - N/A Fog Fog
7:55 PM 35.6 °F 27.1 °F 35.6 °F 100% 30.04 in 0.0 mi South 12.7 mph - N/A Fog Fog
8:00 PM 36 °F - 35 °F 94%  in 0 mi South 12.7 mph - - Fog Heavy Fog
8:55 PM 35.6 °F 27.5 °F 35.6 °F 100% 30.04 in 0.0 mi South 11.5 mph - N/A Fog Fog
9:55 PM 35.6 °F 26.2 °F 35.6 °F 100% 30.06 in 0.0 mi SSE 15.0 mph - N/A Fog Fog
10:55 PM 33.8 °F 23.9 °F 33.8 °F 100% 30.06 in 0.0 mi SSE 15.0 mph - N/A Fog Fog
11:00 PM 35 °F - 34 °F 93%  in 0 mi SSE 15.0 mph - - Fog Heavy Fog
11:55 PM 35.6 °F 24.8 °F 35.6 °F 100% 30.06 in 0.0 mi SE 19.6 mph - N/A Fog Fog